Location: Fort Wayne
(41.1310°N, 85.1290°W)
Time: 07:27:19
(UTC-04:00)

Cosmos 1953 - Visible Passes

Search period start: 29 April 2017 00:00
Search period end: 09 May 2017 00:00
Orbit: 540 x 561 km, 82.5° (Epoch: 27 April)

Date Brightness Start Highest point End Pass type
(mag) Time Alt. Az. Time Alt. Az. Time Alt. Az.
29 Apr 3.1 03:46:24 10° N 03:49:46 49° NE 03:49:46 49° NE visible
30 Apr 3.2 03:42:18 10° N 03:45:27 48° NNE 03:45:27 48° NNE visible
01 May 3.3 03:38:12 10° N 03:41:09 45° NNE 03:41:09 45° NNE visible
02 May 3.4 03:34:07 10° N 03:36:53 42° N 03:36:53 42° N visible
03 May 3.5 03:30:02 10° N 03:32:38 39° N 03:32:38 39° N visible
04 May 3.6 03:25:57 10° N 03:28:24 36° N 03:28:24 36° N visible
05 May 3.7 03:21:52 10° N 03:24:12 34° NNW 03:24:12 34° NNW visible
06 May 3.9 03:17:47 10° NNW 03:20:01 31° NNW 03:20:01 31° NNW visible
07 May 4.0 03:13:43 10° NNW 03:15:49 29° NNW 03:15:49 29° NNW visible
08 May 5.3 01:35:44 10° NE 01:35:56 10° NE 01:35:56 10° NE visible
08 May 4.1 03:09:38 10° NNW 03:11:39 27° NNW 03:11:39 27° NNW visible
